This is the latest recevied weather packets stored in our database for station/object KK7KHO. If no packets are shown the sender has not sent any weather packets the latest 10 day(s).
| Time | Temp. | Humidity | Pressure | Rain* | Wind** | Luminosity | Snow |
|---|---|---|---|---|---|---|---|
| 1777898095 | 11.67° C | 89% | 1008.7 hPa | 0 mm | - | 1 W/m² | - |
| 1777897790 | 11.67° C | 89% | 1008.6 hPa | 0 mm | - | 0 W/m² | - |
| 1777897487 | 11.67° C | 89% | 1008.8 hPa | 0 mm | - | 0 W/m² | - |
| 1777897183 | 11.11° C | 90% | 1008.7 hPa | 0 mm | - | 0 W/m² | - |
| 1777896879 | 10.56° C | 91% | 1008.8 hPa | 0 mm | - | 0 W/m² | - |
| 1777896577 | 10.56° C | 90% | 1008.6 hPa | 0 mm | - | 0 W/m² | - |
| 1777896273 | 10.56° C | 89% | 1008.7 hPa | 0 mm | - | 0 W/m² | - |
| 1777895972 | 11.11° C | 88% | 1008.6 hPa | 0 mm | - | 0 W/m² | - |
| 1777895670 | 11.67° C | 87% | 1008.7 hPa | 0 mm | - | 0 W/m² | - |
| 1777895366 | 11.67° C | 87% | 1008.6 hPa | 0 mm | - | 0 W/m² | - |
| 1777895064 | 12.22° C | 85% | 1008.8 hPa | 0 mm | - | 0 W/m² | - |
| 1777894761 | 12.22° C | 85% | 1008.6 hPa | 0 mm | - | 0 W/m² | - |
| 1777894458 | 12.22° C | 85% | 1008.6 hPa | 0 mm | - | 0 W/m² | - |
| 1777894155 | 12.22° C | 85% | 1008.8 hPa | 0 mm | - | 0 W/m² | - |
| 1777893852 | 12.22° C | 84% | 1008.5 hPa | 0 mm | - | 0 W/m² | - |
| 1777893549 | 12.22° C | 84% | 1008.7 hPa | 0 mm | - | 0 W/m² | - |
| 1777893245 | 12.22° C | 84% | 1008.6 hPa | 0 mm | - | 0 W/m² | - |
| 1777892942 | 12.22° C | 84% | 1008.6 hPa | 0 mm | - | 0 W/m² | - |
| 1777892638 | 12.22° C | 84% | 1008.6 hPa | 0 mm | - | 0 W/m² | - |
| 1777892334 | 12.22° C | 84% | 1008.5 hPa | 0 mm | - | 0 W/m² | - |
| 1777892030 | 12.22° C | 84% | 1008.7 hPa | 0 mm | - | 0 W/m² | - |
| 1777891728 | 11.67° C | 85% | 1008.7 hPa | 0 mm | - | 0 W/m² | - |
| 1777891424 | 11.67° C | 84% | 1008.7 hPa | 0 mm | - | 0 W/m² | - |
| 1777891119 | 11.67° C | 85% | 1008.6 hPa | 0 mm | - | 0 W/m² | - |
| 1777890814 | 11.67° C | 84% | 1008.6 hPa | 0 mm | - | 0 W/m² | - |
* Rain latest hour (hover to see other rain measurements)
** Current wind speed in m/s (hover to see current wind gust speed)